Location: Bindernheim
(48.2821°N, 7.6091°E)
Time: 14:20:46
(UTC+00:00)

Daily predictions for brighter satellites

Satellite Brightness Start Highest point End
(mag) Time Altitude Azimuth Time Altitude Azimuth Time Altitude Azimuth
Cosmos 1943 3.8 18:28:45 10° S 18:33:50 36° ESE 18:38:58 10° NE
SL-08 RB Rocket 4.5 18:30:25 10° SE 18:34:30 34° ENE 18:38:38 10° N
ARGOS Delta rocket 4.1 18:30:18 10° SSE 18:35:34 74° ENE 18:41:02 10° N
Aureole 2 Rocket 2.4 18:33:08 10° NNW 18:36:39 89° WSW 18:40:04 10° SSE
CSL-04 Rocket 4.4 18:31:38 10° S 18:36:49 56° W 18:42:02 10° NNW
BREEZE-M DEB (TANK) 2.8 18:31:22 10° SW 18:38:02 50° SSE 18:40:40 10° E
CZ-2C R/B 3.0 18:34:15 10° SSE 18:39:00 54° ENE 18:43:40 10° N
Meteor 2-15 4.4 18:33:39 10° S 18:39:40 79° E 18:45:46 10° NNE
CZ-4C R/B 4.5 18:37:20 10° NW 18:41:56 21° N 18:47:07 10° NE
H-2A R/B 2.0 18:43:33 10° SSE 18:48:46 75° ENE 18:53:52 10° N
SJ-11-01 4.5 18:46:13 10° S 18:50:55 79° WSW 18:55:41 10° NNW
NOSS 3-4 (A) 4.1 18:45:02 10° NW 18:51:44 54° NE 18:58:54 11° ESE
NOSS 3-4 (C) 4.2 18:45:08 10° NW 18:51:50 54° NE 18:58:59 11° ESE
ADEOS Rocket 3.9 18:47:19 10° N 18:53:43 56° WNW 18:59:29 10° SW
Cosmos 1656 Rocket 3.9 18:48:14 10° NNW 18:53:50 56° ENE 18:59:20 10° SE
SL-16 R/B 3.6 18:51:38 10° SW 18:57:01 44° NW 19:02:26 10° NNE
CZ-2C R/B 3.6 18:53:20 10° NE 18:57:33 25° E 19:01:44 10° SSE
STARLINK-1228 4.0 18:55:07 10° WNW 18:57:47 33° N 19:00:22 11° ENE
Resurs 1-3 4.3 18:55:54 10° SE 18:59:54 36° ENE 19:03:55 10° N
NOSS 3-3 (A) 3.9 18:55:46 10° SSW 19:01:37 75° SE 19:08:16 10° NE
NOSS 3-3 (C) 3.9 18:55:53 10° SSW 19:01:43 74° SE 19:08:22 10° NE
Cosmos 2251 Rocket 3.6 18:57:09 10° SSW 19:02:31 87° ESE 19:07:57 10° NNE
MetOp-A 4.4 18:57:26 10° SE 19:02:34 49° ENE 19:07:43 10° N
Cosmos 1726 2.2 18:58:55 10° S 19:02:35 57° E 19:06:16 10° NNE
ARGOS 3.2 18:59:09 10° SSE 19:04:33 85° ENE 19:09:58 10° NNW
Cosmos 2184 Rocket 4.0 18:59:41 10° N 19:06:01 72° E 19:12:13 10° SSE
MONITOR-E 3.8 19:03:42 10° S 19:06:20 79° W 19:08:59 10° NNW
ISS -1.6 19:04:23 10° W 19:06:57 20° SW 19:09:31 10° S
SJ-6B 2.9 19:03:55 10° SSE 19:08:01 79° ENE 19:12:11 10° N
STARLINK-1233 4.1 19:05:40 10° WNW 19:08:36 35° N 19:11:11 12° ENE
STARLINK-1212 4.1 19:06:08 10° WNW 19:09:03 35° N 19:11:36 13° ENE
STARLINK-1105 4.1 19:06:34 10° WNW 19:09:31 35° N 19:12:03 13° ENE
STARLINK-1206 4.1 19:07:05 10° WNW 19:09:59 35° N 19:12:28 13° ENE
STARLINK-1247 4.1 19:07:31 10° WNW 19:10:26 35° N 19:12:54 13° ENE
Cosmos 967 Rocket 4.5 19:04:15 10° SSW 19:10:41 79° ESE 19:17:13 10° NE
STARLINK-1227 4.1 19:07:56 10° WNW 19:10:52 35° N 19:13:20 13° ENE
BREEZE M DEB (TANK) 4.2 19:08:26 10° SSE 19:10:52 17° ESE 19:15:01 10° ENE
STARLINK-1218 4.1 19:08:26 10° WNW 19:11:21 35° N 19:13:47 13° ENE
Meteor 2-10 4.1 19:06:02 10° S 19:11:27 73° E 19:17:06 10° NNE
STARLINK-1226 4.1 19:08:52 10° WNW 19:11:48 35° N 19:14:12 13° ENE
STARLINK-1254 4.1 19:09:17 10° WNW 19:12:13 35° N 19:14:38 14° ENE
STARLINK-1215 4.1 19:09:47 10° WNW 19:12:43 35° N 19:15:04 14° ENE
USA 186 2.3 19:09:44 10° S 19:13:04 62° W 19:16:15 10° NNW
STARLINK-1231 4.1 19:10:14 10° WNW 19:13:09 35° N 19:15:30 14° ENE
STARLINK-67 3.3 19:10:46 10° NW 19:13:14 39° NNE 19:14:43 19° ENE
STARLINK-1232 4.1 19:11:08 10° WNW 19:14:03 35° N 19:16:22 14° ENE
STARLINK-1217 4.1 19:11:35 10° WNW 19:14:31 35° N 19:16:48 14° ENE
DMSP B5D2-2 4.5 19:10:01 10° NNE 19:14:56 39° E 19:19:49 10° SSE
STARLINK-1208 4.1 19:12:00 10° WNW 19:14:57 36° N 19:17:15 15° ENE
STARLINK-1229 4.1 19:12:28 10° WNW 19:15:24 36° N 19:17:39 15° ENE
STARLINK-1271 4.1 19:12:56 10° WNW 19:15:52 36° N 19:18:06 15° ENE
STARLINK-1234 3.8 19:13:04 10° WNW 19:15:57 38° NNE 19:17:59 17° ENE
STARLINK-1270 4.1 19:13:24 10° WNW 19:16:20 36° N 19:18:33 15° ENE
STARLINK-1154 4.0 19:13:50 10° WNW 19:16:46 36° N 19:18:57 15° ENE
STARLINK-1197 4.0 19:14:44 10° WNW 19:17:41 36° N 19:19:50 16° ENE
STARLINK-1189 4.0 19:15:12 10° WNW 19:18:08 36° N 19:20:16 16° ENE
STARLINK-1198 4.0 19:15:39 10° WNW 19:18:35 36° N 19:20:42 16° ENE
STARLINK-1209 3.7 19:15:59 10° WNW 19:18:49 39° NNE 19:20:37 18° ENE
IRIDIUM 104 4.5 19:13:46 10° N 19:19:00 80° W 19:24:12 10° S
STARLINK-1188 4.0 19:16:06 10° WNW 19:19:02 36° N 19:21:08 16° ENE
Cosmos 1603 3.7 19:13:50 10° SSW 19:19:28 87° WNW 19:25:08 10° NNE
STARLINK-1235 3.9 19:16:45 10° WNW 19:19:45 39° NNE 19:21:46 18° ENE
FREGAT/IRIS 3.7 19:17:23 10° S 19:19:57 40° W 19:22:34 10° NNW
STARLINK-1187 4.0 19:17:10 10° WNW 19:20:10 38° N 19:22:12 17° ENE
Cosmos 2058 Rocket 3.8 19:16:50 10° SSE 19:20:54 34° E 19:24:59 10° NNE
STARLINK-1199 4.0 19:18:02 10° WNW 19:21:01 37° N 19:23:03 17° ENE
STARLINK-1191 4.0 19:18:30 10° WNW 19:21:27 37° N 19:23:29 17° ENE
Ariane Rocket 3.9 19:16:54 10° S 19:21:49 50° W 19:26:46 10° NNW
STARLINK-1210 4.0 19:18:57 10° WNW 19:21:55 37° N 19:23:55 17° ENE
STARLINK-1221 4.0 19:19:24 10° WNW 19:22:22 37° N 19:24:21 17° ENE
MOS 1 Rocket 4.0 19:17:39 10° NNE 19:22:45 43° E 19:27:55 10° SSE
STARLINK-1219 4.0 19:19:50 10° WNW 19:22:49 37° N 19:24:47 18° ENE
STARLINK-1222 4.0 19:20:18 10° WNW 19:23:17 37° N 19:25:13 18° ENE
STARLINK-1211 4.0 19:20:45 10° WNW 19:23:44 37° N 19:25:39 18° ENE
STARLINK-1214 4.0 19:21:12 10° WNW 19:24:11 38° N 19:26:05 18° ENE
ATLAS 2AS CENTAUR R/B 2.9 19:16:37 10° NW 19:24:21 78° NE 19:29:59 17° SE
USA 234 3.8 19:18:46 10° ENE 19:24:33 32° SE 19:30:18 10° S
STARLINK-1245 4.0 19:21:42 10° WNW 19:24:38 37° N 19:26:30 19° ENE
Resurs 01 Rocket 2.0 19:21:42 17° SE 19:24:43 44° ENE 19:28:56 10° N
STARLINK-1238 4.0 19:22:06 10° WNW 19:25:05 38° N 19:26:57 19° ENE
STARLINK-1205 3.9 19:23:01 10° WNW 19:25:59 38° N 19:27:48 19° ENE
STARLINK-1204 3.9 19:23:30 10° WNW 19:26:27 38° N 19:28:14 19° ENE
Cosmos 2154 Rocket 4.0 19:21:53 10° N 19:28:15 69° ENE 19:34:33 10° SSE
Meteor 1-16 Rocket 4.1 19:23:28 10° S 19:28:51 85° E 19:34:27 10° NNE
SeaSat 1 4.2 19:25:52 10° NNE 19:30:19 35° NW 19:34:45 10° WSW
Cosmos 1190 Rocket 4.4 19:25:39 10° S 19:30:32 39° ESE 19:35:27 10° NE
Nadezhda 1 Rocket 4.0 19:25:27 10° S 19:31:47 67° E 19:38:05 10° NNE
Cosmos 1140 Rocket 4.0 19:27:15 10° SSE 19:31:55 35° ESE 19:36:34 10° NE
SL-4 R/B 1.7 19:28:54 10° SW 19:32:11 47° SSE 19:33:44 26° E
Spot 2 Rocket 4.3 19:31:32 21° ESE 19:34:06 34° ENE 19:38:40 10° N
Cosmos 1726 Rocket 3.5 19:29:48 10° S 19:34:11 70° E 19:38:37 10° NNE
STARLINK-1201 3.9 19:31:39 10° WNW 19:34:47 41° NNE 19:36:24 23° ENE
Cosmos 1340 Rocket 3.1 19:32:48 15° SSE 19:35:55 43° E 19:39:47 10° NNE
ATLAS 5 CENTAUR R/B 2.2 19:33:57 10° S 19:37:36 31° ESE 19:41:37 10° ENE
Cosmos 1825 Rocket 4.1 19:35:17 10° NNW 19:39:38 59° W 19:43:54 10° S
Cosmos 1328 3.9 19:35:41 10° NNW 19:39:43 79° W 19:43:15 13° S
SL-24 R/B - RUBIN 2 4.5 19:35:52 10° S 19:41:08 46° ESE 19:47:05 10° NE
Cosmos 1703 3.6 19:41:10 10° NNW 19:45:06 66° W 19:48:40 12° S
Meteor 2-17 Rocket 4.4 19:39:12 10° N 19:45:24 88° E 19:51:27 10° S
STARLINK-1230 4.5 19:43:29 10° WNW 19:47:29 44° N 19:49:52 21° ENE
Cosmos 614 Rocket 3.9 19:43:35 10° SSW 19:48:48 76° ESE 19:54:02 10° NNE
Cosmos 1943 Rocket 4.3 19:45:15 10° NW 19:49:31 23° WSW 19:53:48 10° SSW
Cosmos 1300 3.4 19:50:48 34° E 19:50:48 34° E 19:54:13 10° NNE
SPOT 3 Rocket 3.9 19:46:06 10° S 19:51:16 64° WSW 19:56:28 10° NNW
Cosmos 2369 Rocket 3.9 19:46:44 10° NW 19:51:35 30° WSW 19:56:24 10° SSW
Abrixas rocket 1.8 19:48:59 10° W 19:51:58 89° N 19:52:19 66° E
STARLINK-1243 4.4 19:48:27 10° WNW 19:52:28 45° N 19:54:37 24° ENE
SL-24 R/B 4.2 19:49:15 10° N 19:53:30 69° WNW 19:57:17 10° SSW
COSMOS 2455 3.0 19:47:36 10° NNW 19:53:36 62° NE 19:56:40 29° ESE
IGS 5A 4.4 19:53:17 29° E 19:53:53 30° ENE 19:57:33 10° N
CZ-2C R/B 4.0 19:50:36 10° N 19:55:20 70° WNW 19:59:57 10° SSW
Cosmos 921 Rocket 2.9 19:51:40 10° NNW 19:55:51 64° ENE 19:57:11 40° SE
STARLINK-1236 4.4 19:53:28 10° WNW 19:57:29 46° N 19:59:25 26° ENE
Cosmos 676 Rocket 4.4 19:56:21 25° SSE 19:58:50 41° ESE 20:03:45 10° NE
Cosmos 1953 Rocket 4.3 19:55:37 10° NNW 19:59:59 54° W 20:04:01 12° S
Cosmos 407 Rocket 3.3 19:55:01 10° SSW 20:00:09 79° ESE 20:05:19 10° NNE
Cosmos 2228 3.7 19:56:23 10° SSW 20:00:35 54° WNW 20:04:52 10° N
Cosmos 1908 3.9 19:59:58 10° SSW 20:03:45 54° WNW 20:07:35 10° N
STARLINK-1269 4.3 20:03:28 10° WNW 20:07:31 48° NNE 20:09:00 32° ENE
Cosmos 1818 4.0 20:02:58 10° SW 20:08:22 64° NW 20:13:49 10° NE
ERS-1 Rocket 3.7 20:07:40 31° E 20:08:39 34° ENE 20:13:09 10° N
ATLAS CENTAUR R/B 3.8 20:08:09 10° N 20:09:45 12° NNE 20:11:21 10° NE
ERBS 3.8 20:06:56 10° NW 20:09:55 28° NNE 20:10:29 26° NE
STARLINK-1200 4.3 20:08:27 10° WNW 20:12:30 49° NNE 20:13:47 36° ENE
Landsat 7 4.1 20:11:38 42° ESE 20:12:39 50° ENE 20:17:15 10° N
SPOT 1/Viking Rocket 3.9 20:14:31 40° ESE 20:15:50 50° ENE 20:20:53 10° N
Cosmos 220 Rocket 4.5 20:13:19 10° NNW 20:17:29 43° ENE 20:17:46 42° ENE
STARLINK-1192 4.2 20:13:26 10° WNW 20:17:30 51° NNE 20:18:33 39° ENE
MetOp-B 4.0 20:15:07 34° SSE 20:17:32 85° ENE 20:22:56 10° NNW
Cosmos 1943 4.4 20:12:25 10° SW 20:17:48 44° NW 20:23:15 10° NNE
Cosmos 1461 3.2 20:14:08 10° NW 20:18:39 71° SW 20:19:51 47° SSE
STARLINK-1244 4.1 20:18:26 10° WNW 20:22:30 52° NNE 20:23:20 44° NE
Cosmos 1954 Rocket 3.9 20:21:02 33° S 20:23:18 63° ESE 20:28:29 10° NNE
SAR-Lupe-2 3.5 20:23:02 10° NNE 20:26:38 83° WNW 20:26:38 83° WNW
STARLINK-1138 4.0 20:23:24 10° WNW 20:27:29 54° NNE 20:28:06 48° NE
STARLINK-1143 4.0 20:28:21 10° WNW 20:32:27 56° NNE 20:32:52 53° NE
CZ-4C R/B 4.0 20:26:46 10° NW 20:32:37 31° NNE 20:37:07 18° ENE
Cosmos 2151 4.5 20:29:35 10° NNE 20:32:13 24° NE 20:32:13 24° NE
Cosmos 1697 Rocket 3.9 20:29:23 10° NNW 20:34:12 27° NE 20:35:27 25° ENE
Cosmos 1076 Rocket 3.5 20:30:59 10° N 20:35:03 64° ENE 20:35:03 64° ENE
SPOT 5 3.2 20:36:47 43° NE 20:36:47 43° NE 20:40:33 10° N
STARLINK-1241 3.9 20:33:22 10° WNW 20:37:29 58° NNE 20:37:41 57° NNE
CZ-2C R/B 3.4 20:33:07 10° N 20:38:08 51° WNW 20:43:08 10° SW
Iridium 2 4.0 20:42:00 61° N 20:42:00 61° N 20:45:13 10° N
STARLINK-1239 3.9 20:38:21 10° WNW 20:42:26 61° NNE 20:42:26 61° NNE
NOSS 3-4 (C) 4.5 20:36:08 10° NW 20:42:51 48° WSW 20:46:27 28° S
Cosmos 2341 Rocket 4.4 20:36:42 10° NNW 20:43:00 62° W 20:46:39 26° SSW
Cosmos 2058 3.0 20:40:40 10° N 20:44:18 66° NNE 20:44:18 66° NNE
STARLINK-1240 3.9 20:43:20 10° WNW 20:47:15 62° N 20:47:15 62° N
Cosmos 1763 Rocket 3.6 20:44:18 10° NNW 20:49:26 56° ENE 20:49:35 56° ENE
STARLINK-1216 4.0 20:48:20 10° WNW 20:52:02 61° NNW 20:52:02 61° NNW
Cosmos 1408 4.4 20:50:18 10° N 20:52:06 25° NNE 20:52:06 25° NNE
Terra 2.3 20:55:02 49° NE 20:55:02 49° NE 20:59:12 10° N
USA 32 4.2 20:50:43 10° N 20:55:38 57° ENE 20:55:38 57° ENE
RESURS DK-1 3.8 20:53:26 10° NNW 20:56:27 30° NNE 20:56:27 30° NNE
STARLINK-1237 4.1 20:53:17 10° WNW 20:56:48 58° NNW 20:56:48 58° NNW
Cosmos 1174 4.3 20:54:24 10° NNW 20:57:56 65° N 20:57:56 65° N
Cosmos 2218 Rocket 4.1 20:54:21 10° NNW 21:00:33 73° W 21:02:26 47° SSW
Cosmos 192 4.3 20:56:09 10° NNW 21:01:06 84° W 21:01:06 84° W
Resurs 01 Rocket 3.7 20:59:16 16° SW 21:01:25 22° W 21:04:52 10° NW
STARLINK-1202 4.3 20:58:16 10° WNW 21:01:35 53° NW 21:01:35 53° NW
Cosmos 1980 Rocket 3.6 20:57:47 10° N 21:02:27 26° NE 21:03:10 25° ENE
Cosmos 1892 3.7 20:59:05 10° NNW 21:01:53 45° NNW 21:01:53 45° NNW
Cosmos 540 Rocket 4.2 20:59:51 10° N 21:04:25 39° NE 21:04:25 39° NE
STARLINK-1203 4.4 21:02:39 10° WNW 21:05:50 50° NW 21:05:50 50° NW
USA 234 3.2 21:01:29 10° NE 21:08:03 88° NNW 21:14:37 10° WSW
CARTOSAT-1 4.0 21:10:07 59° NNW 21:10:07 59° NNW 21:13:41 10° NNW
Cosmos 1656 3.6 21:04:49 10° NNW 21:10:32 71° ENE 21:10:37 71° ENE
Iridium 4 Rocket 3.7 21:07:00 10° N 21:10:42 52° WNW 21:10:42 52° WNW
SL-4 R/B 4.1 21:08:21 10° W 21:09:22 18° W 21:09:22 18° W
ATLAS 2AS CENTAUR R/B 4.2 21:08:27 10° NW 21:14:36 28° WSW 21:17:27 22° SW
Cosmos 1825 4.1 21:14:47 10° N 21:16:32 25° N 21:16:32 25° N
ATLAS 5 CENTAUR R/B 2.8 21:17:58 10° WSW 21:22:03 42° NW 21:26:42 10° NNE
Cosmos 841 Rocket 3.9 21:19:38 10° NNW 21:24:13 57° NNE 21:24:13 57° NNE
Cosmos 2278 4.4 21:20:21 10° NNW 21:25:34 41° NE 21:25:34 41° NE
Cosmos 2082 Rocket 4.3 21:33:29 14° NE 21:33:29 14° NE 21:34:29 10° NE
Cosmos 1570 Rocket 4.2 21:25:07 10° NNW 21:29:51 69° N 21:29:51 69° N
Mayak 1.0 21:29:29 10° NNE 21:30:35 17° NNE 21:30:35 17° NNE
ASTEX 1 4.2 21:39:12 45° NNE 21:39:12 45° NNE 21:42:43 10° N
COSMOS 2455 4.2 21:34:08 10° NW 21:39:09 28° WSW 21:39:49 27° WSW
Nadezhda 3 Rocket 3.9 21:43:48 82° NE 21:43:48 82° NE 21:49:51 10° N
COSMOS 2406 3.8 21:45:30 48° NE 21:45:30 48° NE 21:49:34 10° NNE
Cosmos 1833 Rocket 4.1 21:47:50 27° NE 21:47:50 27° NE 21:50:27 10° NE
ERS-1 Rocket 4.1 21:47:39 35° W 21:47:39 35° W 21:52:02 10° NNW
ATLAS CENTAUR R/B 3.6 21:45:57 10° NNW 21:47:36 22° NNW 21:47:36 22° NNW
Cosmos 2369 4.2 22:01:19 10° NNW 22:05:45 56° NW 22:05:45 56° NW
Meteor 2-10 Rocket 4.5 22:12:36 44° NW 22:12:36 44° NW 22:17:06 10° N
Cosmos 1697 Rocket 3.5 22:13:00 10° NNW 22:17:11 47° NW 22:17:11 47° NW
CZ-4C R/B 2.9 22:15:08 10° NW 22:22:14 78° NE 22:22:18 78° NE
Cosmos 1934 Rocket 4.3 22:16:58 10° NNW 22:22:23 62° NW 22:22:23 62° NW
Meteor 2-3 Rocket 4.5 22:22:20 10° NNW 22:26:44 49° NW 22:26:44 49° NW
Terra 4.0 22:33:54 19° WNW 22:33:54 19° WNW 22:36:17 10° NW
SL-16 R/B 3.4 22:27:54 10° NNW 22:32:21 35° NNE 22:32:21 35° NNE
Cosmos 1605 Rocket 4.3 22:27:38 10° N 22:32:34 60° NNW 22:32:34 60° NNW
Cosmos 2360 Rocket 4.0 22:34:49 10° N 22:39:08 22° NE 22:39:34 22° NE
Cosmos 2322 Rocket 3.5 22:37:48 10° NNW 22:42:08 34° NNE 22:42:08 34° NNE
Cosmos 1980 Rocket 3.3 22:41:22 10° NNW 22:44:56 40° NW 22:44:56 40° NW
USA 234 4.1 22:44:33 10° ENE 22:50:46 47° NNW 22:56:58 10° W
Mayak 1.5 23:05:50 10° NNW 23:07:09 15° NW 23:07:09 15° NW
Cosmos 2082 Rocket 3.3 23:15:18 40° N 23:15:18 40° N 23:19:10 10° NNE
Cosmos 2344 4.3 23:07:44 10° NW 23:17:20 72° SW 23:18:38 67° SSW
Cosmos 1833 Rocket 4.1 23:29:28 31° NW 23:29:28 31° NW 23:34:12 10° NNE
SL-16 R/B 4.3 23:29:18 21° ENE 23:30:45 23° NE 23:35:25 10° N
Cosmos 2219 Rocket 4.1 23:34:36 10° N 23:39:00 23° NE 23:40:10 21° ENE
COSMOS 2428 4.4 23:46:54 10° N 23:51:39 26° NE 23:52:47 24° ENE
